Wind_Speed
33 34 35 35 35 36 36 37 38 38 38 38 38 39 40 41 42 42 43 44 44 45 46 46 46 46 45 45 45 45 46 45 45 45 45 46 46 46 47 47 47 47 47 47
34 35 35 36 36 36 36 37 38 38 39 39 39 38 40 41 41 42 42 42 43 44 45 46 46 47 46 46 46 45 45 45 45 46 47 47 48 47 47 48 48 49 48 48
35 35 35 35 35 36 37 37 38 38 39 40 40 39 39 40 40 40 40 41 41 42 44 45 45 46 46 46 46 45 45 45 45 45 47 48 49 48 48 49 49 50 49 49
36 35 35 35 35 36 37 38 38 39 40 41 39 40 37 38 38 38 38 38 39 40 42 43 44 45 46 46 46 46 45 45 45 45 47 48 48 49 49 49 50 50 50 50
36 35 36 36 36 37 37 38 38 38 39 40 38 39 37 37 37 36 37 37 37 38 40 41 42 44 45 46 46 46 46 45 45 45 46 47 48 48 48 50 51 52 51 52
36 36 36 36 36 36 37 37 38 38 38 38 37 37 37 35 35 35 35 36 36 38 38 40 41 43 44 45 45 46 46 45 46 46 46 47 48 48 49 50 52 53 53 53
36 35 36 35 36 36 36 36 36 37 36 36 36 36 36 35 34 34 34 34 35 37 37 38 39 41 42 44 45 45 46 46 46 46 46 47 48 48 49 50 52 54 53 53
37 36 36 36 36 36 35 35 35 37 38 37 35 35 34 34 34 33 32 32 33 35 36 37 39 40 41 42 43 44 45 45 45 45 46 48 49 49 49 50 51 53 53 53
37 37 36 35 35 35 35 34 35 36 38 38 36 36 34 33 32 32 31 32 32 33 34 36 38 39 40 41 42 43 45 46 46 46 46 48 48 49 49 50 51 53 54 54
37 37 36 35 35 35 34 33 34 35 36 37 37 35 35 34 34 32 32 32 34 33 33 34 36 38 39 41 42 43 45 46 46 46 47 47 48 49 49 50 51 52 52 53
37 37 36 36 35 34 33 33 33 34 35 36 37 33 33 34 34 34 34 34 33 33 33 34 35 37 38 39 41 43 44 45 45 45 46 47 47 49 50 50 51 52 52 52
36 36 36 35 35 35 34 33 33 34 34 34 35 33 32 33 34 33 33 34 34 34 34 34 35 35 37 38 40 41 42 44 46 46 46 46 47 47 49 49 50 52 52 53
36 35 36 35 35 34 34 34 34 34 34 33 33 32 31 32 33 34 34 33 33 33 33 34 34 35 36 38 39 40 41 43 44 45 46 47 47 46 47 49 50 51 51 52
35 35 35 35 35 35 34 34 34 34 34 34 33 32 31 32 32 32 33 32 31 32 32 33 33 34 35 37 38 40 41 42 43 44 44 45 46 45 45 47 49 50 51 52
36 36 35 35 35 35 34 34 34 35 34 35 33 33 32 32 32 31 31 31 31 32 32 33 33 33 34 35 37 38 40 40 42 43 44 44 45 45 45 46 47 48 50 51
36 37 37 35 36 36 35 34 34 34 35 35 34 33 33 33 33 32 32 32 31 32 32 32 32 32 33 34 36 37 38 39 40 42 43 44 46 46 45 46 46 48 49 51
36 37 38 37 37 37 37 35 34 34 34 35 34 33 33 33 33 33 33 32 32 31 31 30 30 30 31 33 35 36 37 38 38 40 41 41 43 44 44 45 46 48 49 51
36 37 38 38 38 37 37 36 35 35 34 34 34 33 33 33 34 34 33 33 32 31 31 30 30 31 31 31 31 34 36 37 38 38 39 40 41 42 43 44 45 46 47 49
36 37 38 38 38 37 36 35 35 36 34 34 34 34 34 34 34 34 34 33 33 33 32 31 31 31 31 30 30 31 33 35 37 38 39 40 40 41 42 43 43 44 46 47
36 37 38 39 39 38 36 36 36 36 35 35 35 35 35 35 35 34 34 33 33 33 33 32 32 31 30 30 31 31 33 34 35 37 38 39 40 41 42 42 43 44 45 45
37 38 38 38 38 37 37 36 36 36 36 36 36 35 35 36 36 35 35 34 34 33 33 32 32 32 31 30 30 30 31 32 34 36 37 38 40 41 41 41 42 43 44 45
38 38 38 38 38 38 37 37 37 37 37 37 36 36 36 35 36 35 35 35 34 33 32 32 32 32 31 31 30 30 30 31 32 33 35 37 38 40 40 40 41 43 44 44
37 37 37 37 37 37 37 38 38 38 37 36 36 35 35 34 35 34 34 33 33 33 32 32 31 31 31 30 30 30 30 30 31 32 34 36 37 39 40 41 41 43 44 45
37 37 37 36 36 37 38 38 38 37 37 36 36 35 34 34 34 33 32 31 31 31 31 31 31 30 30 30 30 30 31 31 31 32 34 35 37 38 39 41 41 42 43 44
36 36 36 36 37 37 36 36 36 36 36 35 35 35 34 33 32 31 30 30 30 30 29 30 30 30 30 30 31 31 31 32 31 32 32 33 35 37 38 39 40 41 42 44
36 36 37 37 37 37 36 35 35 35 34 34 33 32 32 31 30 29 29 29 29 29 29 29 29 29 29 30 30 30 31 31 32 31 31 31 32 34 35 36 38 39 40 40
Wind_Direction
299 297 296 295 293 292 290 288 286 285 281 280 280 278 276 275 273 272 271 268 266 263 260 259 257 256 256 256 255 254 253 252 251 249 246 244 244 243 241 240 240 240 239 240
301 299 298 296 294 292 291 290 289 286 283 281 281 279 277 276 275 274 272 270 268 265 260 258 256 255 255 254 254 253 252 252 252 251 247 245 243 243 242 240 240 240 240 240
303 303 301 298 297 294 293 292 291 289 285 284 284 281 278 278 278 276 274 272 268 265 261 258 256 254 254 253 251 251 250 251 250 249 248 246 244 243 242 242 241 241 241 241
305 305 302 300 297 296 295 294 292 291 289 286 285 285 280 281 280 278 275 274 270 265 262 259 257 255 253 252 250 250 250 250 250 249 248 246 245 244 243 242 241 242 242 242
307 306 304 301 299 298 298 296 293 292 292 288 286 287 285 282 281 279 277 276 272 267 263 260 257 255 252 251 250 250 249 249 249 249 247 246 245 244 244 242 242 241 242 241
307 306 305 303 302 301 300 299 296 295 295 291 289 288 287 285 285 282 280 277 273 269 266 262 258 256 252 251 250 250 250 249 249 249 248 246 246 245 245 244 243 243 243 242
307 307 306 305 304 302 302 300 299 297 297 295 293 290 289 287 287 285 282 278 274 271 268 263 259 256 252 251 250 250 250 249 249 250 249 247 246 245 246 245 244 243 243 243
307 307 307 306 305 305 303 301 300 299 298 298 295 293 291 288 287 286 283 280 277 273 268 264 260 256 252 251 250 250 250 250 250 250 249 249 248 247 246 245 244 244 243 243
309 308 309 308 307 307 304 301 300 299 299 299 297 294 292 288 288 288 285 281 278 275 270 266 262 258 255 252 252 252 251 250 250 250 250 250 249 248 247 245 245 244 243 242
308 309 309 307 307 307 305 304 303 302 302 301 300 297 294 290 288 288 287 285 282 278 273 268 264 259 256 254 253 252 251 250 249 250 250 249 249 248 247 245 244 244 243 242
308 308 309 307 306 306 305 304 305 305 303 301 301 300 297 294 291 289 287 287 285 281 276 272 266 261 258 257 254 252 251 249 248 249 250 250 249 249 248 246 244 244 244 243
308 309 309 308 307 304 303 304 305 305 303 300 300 301 300 296 293 292 289 288 287 282 278 275 270 264 261 258 256 255 253 251 249 250 249 249 249 249 247 246 245 243 243 243
308 308 309 308 307 306 303 302 304 304 302 299 299 301 300 298 295 292 291 289 287 285 280 276 272 268 264 260 258 257 256 253 251 250 249 249 249 249 247 246 245 243 242 243
306 306 307 308 307 306 304 301 302 303 302 300 299 298 298 298 297 293 291 288 285 284 282 278 274 270 265 261 258 256 256 254 252 250 250 250 249 249 248 246 245 244 243 243
306 305 305 304 304 304 304 301 301 301 301 299 300 298 299 298 297 296 292 289 287 284 282 278 275 271 268 264 259 256 254 254 253 251 251 250 250 250 249 248 246 246 244 242
307 306 305 303 302 303 302 302 301 300 299 298 298 299 298 297 296 295 292 290 289 286 283 281 277 273 270 266 261 257 255 255 254 252 252 251 251 250 250 250 249 248 246 244
307 307 307 306 304 302 301 303 302 300 299 298 298 298 298 296 295 294 292 291 290 289 286 282 278 277 273 268 263 259 256 255 256 255 253 252 252 251 252 251 250 250 248 245
307 308 308 308 306 304 305 303 302 301 300 298 297 297 297 297 295 294 292 291 291 290 288 283 280 278 275 272 266 261 259 258 258 257 255 254 253 253 253 252 251 251 248 246
307 308 309 310 308 307 305 304 302 301 300 298 296 296 295 295 295 294 293 291 290 289 287 285 283 280 277 274 269 265 262 261 260 259 258 257 255 254 254 252 251 250 249 247
306 307 308 309 309 309 309 306 305 303 301 300 297 296 295 294 295 294 293 289 288 288 286 285 283 281 279 276 273 269 266 263 261 260 258 258 257 255 256 254 252 251 250 249
304 305 306 307 307 307 309 308 307 305 304 301 299 297 296 294 294 294 293 290 287 287 285 284 283 281 280 278 274 270 268 266 264 261 259 258 258 257 256 255 253 251 250 249
303 303 304 305 305 307 308 308 307 306 304 302 300 298 296 296 295 294 293 290 287 286 286 284 284 282 280 279 276 271 269 269 267 265 262 260 259 258 257 255 254 253 252 250
301 302 302 303 304 305 306 307 307 307 305 303 301 300 298 296 295 293 293 290 287 285 285 284 283 282 280 277 276 273 271 270 269 268 265 262 260 259 258 257 255 254 253 252
301 301 301 303 305 305 305 306 306 306 305 304 302 300 298 297 296 294 292 291 288 285 285 284 284 284 282 279 276 274 272 271 270 269 266 264 262 261 259 258 257 255 254 252
301 301 301 302 303 304 304 305 306 305 305 304 304 302 300 298 297 294 293 290 289 286 285 285 285 285 284 280 277 276 274 271 270 269 267 265 264 262 261 260 259 256 255 255
300 301 301 302 304 305 305 305 305 305 305 306 306 305 302 299 297 295 293 291 290 288 285 285 286 285 284 282 280 278 276 273 271 270 269 266 265 264 263 261 260 258 257 257
Height
5700 5698 5694 5690 5687 5683 5680 5677 5675 5673 5670 5668 5668 5667 5666 5664 5663 5662 5661 5661 5661 5661 5662 5663 5665 5666 5669 5671 5673 5675 5677 5679 5681 5684 5687 5691 5694 5698 5702 5707 5711 5715 5719 5723
5693 5689 5685 5681 5677 5674 5670 5668 5666 5663 5660 5657 5657 5656 5655 5652 5651 5650 5649 5648 5648 5648 5649 5650 5651 5653 5656 5658 5661 5663 5666 5668 5671 5673 5676 5680 5683 5687 5692 5696 5700 5704 5708 5712
5685 5681 5676 5672 5668 5665 5662 5658 5655 5653 5650 5647 5645 5645 5643 5641 5639 5638 5637 5636 5635 5635 5636 5637 5639 5640 5643 5646 5649 5652 5655 5657 5659 5662 5665 5669 5672 5676 5680 5684 5689 5693 5697 5701
5676 5672 5668 5664 5660 5656 5653 5649 5645 5642 5639 5636 5634 5631 5633 5630 5628 5627 5626 5624 5623 5623 5624 5625 5626 5627 5630 5633 5636 5640 5643 5646 5648 5651 5654 5657 5661 5665 5669 5673 5677 5681 5685 5690
5668 5664 5660 5656 5652 5647 5643 5639 5635 5632 5628 5625 5623 5619 5621 5619 5616 5615 5615 5613 5612 5611 5612 5612 5613 5615 5617 5621 5624 5628 5631 5634 5637 5639 5643 5646 5650 5654 5658 5662 5666 5670 5673 5678
5661 5656 5652 5647 5643 5638 5634 5630 5626 5622 5618 5616 5614 5610 5609 5607 5606 5605 5604 5602 5600 5600 5600 5600 5601 5602 5605 5608 5612 5616 5619 5622 5625 5628 5631 5635 5638 5642 5645 5649 5653 5657 5662 5666
5654 5649 5644 5639 5635 5631 5626 5622 5617 5613 5609 5607 5605 5601 5601 5598 5596 5594 5593 5591 5590 5589 5589 5589 5589 5591 5593 5597 5600 5604 5607 5610 5614 5617 5620 5623 5627 5630 5633 5637 5641 5645 5650 5654
5645 5642 5637 5631 5627 5623 5618 5614 5610 5604 5601 5599 5596 5593 5593 5590 5587 5585 5583 5581 5580 5578 5578 5578 5579 5580 5583 5586 5589 5592 5596 5599 5602 5605 5608 5611 5615 5618 5621 5625 5628 5632 5637 5642
5637 5634 5629 5624 5619 5615 5610 5606 5602 5597 5592 5590 5587 5586 5585 5582 5579 5576 5574 5572 5570 5569 5568 5568 5569 5570 5573 5575 5578 5581 5584 5588 5591 5594 5597 5600 5602 5605 5608 5612 5615 5619 5624 5629
5629 5626 5622 5617 5612 5608 5604 5599 5595 5590 5584 5581 5579 5578 5577 5573 5571 5569 5566 5564 5562 5560 5558 5558 5559 5560 5562 5565 5567 5570 5573 5576 5579 5582 5585 5587 5590 5592 5595 5599 5602 5606 5611 5616
5622 5618 5615 5610 5605 5601 5597 5593 5587 5583 5579 5575 5571 5573 5569 5565 5562 5560 5558 5555 5553 5552 5550 5550 5550 5551 5552 5554 5556 5559 5561 5564 5566 5569 5572 5574 5577 5580 5583 5586 5590 5594 5599 5603
5614 5610 5607 5603 5598 5593 5589 5585 5581 5578 5573 5568 5564 5567 5561 5558 5555 5552 5550 5548 5545 5544 5542 5541 5541 5542 5543 5544 5546 5548 5550 5552 5554 5557 5559 5562 5564 5567 5570 5573 5577 5581 5586 5591
5607 5603 5599 5595 5593 5587 5582 5578 5574 5570 5566 5562 5559 5561 5555 5551 5547 5545 5542 5540 5538 5536 5535 5533 5533 5533 5533 5534 5536 5537 5539 5540 5543 5545 5547 5550 5552 5555 5558 5561 5564 5569 5573 5578
5599 5596 5592 5589 5583 5579 5575 5572 5567 5563 5559 5556 5553 5551 5549 5544 5540 5537 5535 5532 5530 5528 5526 5525 5524 5524 5524 5524 5525 5526 5528 5529 5531 5533 5536 5538 5540 5543 5546 5549 5552 5556 5561 5565
5592 5589 5585 5581 5576 5572 5568 5565 5561 5556 5552 5549 5546 5543 5541 5536 5533 5530 5527 5524 5522 5520 5518 5516 5515 5515 5515 5515 5515 5516 5517 5519 5520 5522 5524 5527 5529 5531 5534 5537 5540 5544 5548 5553
5584 5581 5577 5574 5569 5564 5561 5558 5554 5549 5545 5541 5538 5536 5532 5528 5525 5522 5519 5516 5514 5512 5509 5508 5506 5506 5505 5505 5505 5506 5507 5508 5510 5512 5514 5516 5518 5520 5523 5525 5528 5532 5535 5540
5577 5572 5568 5565 5561 5556 5553 5550 5546 5542 5538 5534 5530 5528 5524 5520 5517 5513 5511 5508 5506 5503 5501 5499 5497 5496 5496 5496 5496 5496 5497 5498 5500 5501 5503 5504 5506 5508 5510 5513 5516 5519 5522 5527
5570 5565 5560 5556 5553 5548 5548 5542 5537 5533 5530 5526 5522 5519 5515 5512 5509 5505 5502 5500 5497 5495 5492 5491 5489 5488 5487 5486 5486 5486 5487 5488 5489 5490 5492 5494 5495 5497 5499 5501 5504 5507 5510 5514
5562 5557 5552 5547 5543 5540 5538 5533 5528 5525 5523 5518 5514 5510 5507 5503 5500 5498 5494 5491 5488 5486 5484 5482 5480 5478 5478 5477 5476 5477 5477 5478 5479 5480 5481 5483 5484 5486 5488 5490 5492 5495 5498 5502
5554 5550 5545 5539 5534 5531 5530 5525 5519 5516 5514 5510 5505 5501 5498 5495 5492 5490 5486 5483 5480 5477 5475 5473 5471 5469 5468 5468 5467 5467 5467 5468 5468 5469 5470 5472 5473 5475 5477 5479 5481 5483 5486 5489
5547 5542 5537 5532 5526 5523 5521 5516 5511 5508 5505 5500 5496 5492 5489 5486 5483 5480 5476 5473 5470 5468 5466 5464 5462 5460 5459 5458 5458 5458 5458 5458 5458 5459 5460 5461 5462 5463 5465 5467 5469 5472 5474 5478
5538 5533 5529 5524 5519 5518 5512 5507 5504 5500 5495 5490 5486 5483 5480 5477 5473 5470 5466 5463 5461 5459 5457 5455 5452 5451 5450 5449 5448 5448 5448 5448 5448 5448 5449 5450 5451 5452 5453 5455 5458 5460 5463 5466
5529 5525 5520 5517 5515 5509 5504 5499 5495 5490 5486 5482 5478 5474 5470 5467 5464 5461 5457 5454 5452 5450 5448 5446 5444 5442 5440 5440 5439 5439 5439 5438 5438 5438 5438 5439 5440 5441 5442 5444 5446 5448 5451 5453
5520 5516 5512 5508 5505 5500 5495 5490 5486 5481 5477 5472 5468 5465 5461 5458 5454 5451 5448 5445 5443 5441 5439 5437 5435 5433 5432 5431 5430 5429 5429 5429 5428 5428 5428 5429 5429 5430 5431 5432 5434 5436 5439 5441
5512 5507 5503 5499 5496 5492 5488 5482 5478 5473 5468 5464 5460 5455 5451 5448 5445 5442 5439 5437 5434 5432 5430 5428 5427 5425 5423 5422 5421 5420 5419 5419 5419 5418 5418 5418 5418 5419 5420 5421 5423 5425 5427 5429
5504 5499 5495 5491 5487 5483 5479 5474 5469 5465 5460 5456 5451 5447 5443 5439 5436 5433 5431 5428 5426 5424 5422 5420 5418 5417 5415 5413 5412 5411 5410 5409 5409 5408 5408 5408 5408 5409 5409 5410 5412 5413 5415 5417